Stündliche Wetter Cenon

Heute, 19 Januar, Dienstag

Zeit Temperatur Niederschläge Wind Luftdruck Luftfeuchtigkeit
00:00 +3°C° 0 mm 2 m/S 766 mmHg 87%
01:00 +2°C° 0 mm 2 m/S 765 mmHg 88%
02:00 +2°C° 0 mm 2 m/S 764 mmHg 88%
03:00 +2°C° 0 mm 2 m/S 764 mmHg 89%
04:00 +2°C° 0 mm 2 m/S 763 mmHg 89%
05:00 +2°C° 0 mm 2 m/S 763 mmHg 89%
06:00 +2°C° 0 mm 2 m/S 763 mmHg 89%
07:00 +2°C° 0 mm 2 m/S 763 mmHg 85%
08:00 +3°C° 0 mm 2 m/S 762 mmHg 82%
09:00 +4°C° 0 mm 2 m/S 762 mmHg 78%
10:00 +6°C° 0 mm 2 m/S 762 mmHg 72%
11:00 +7°C° 0 mm 2 m/S 761 mmHg 65%
12:00 +9°C° 0 mm 2 m/S 761 mmHg 58%
13:00 +10°C° 0 mm 2 m/S 760 mmHg 58%
14:00 +12°C° 0 mm 2 m/S 759 mmHg 57%
15:00 +12°C° 0 mm 2 m/S 759 mmHg 57%
16:00 +10°C° 0 mm 2 m/S 758 mmHg 62%
17:00 +8°C° 0 mm 2 m/S 758 mmHg 67%
18:00 +7°C° 0 mm 2 m/S 758 mmHg 73%
19:00 +7°C° 0 mm 3 m/S 757 mmHg 72%
20:00 +7°C° 0 mm 3 m/S 757 mmHg 72%
21:00 +7°C° 0 mm 3 m/S 756 mmHg 72%
22:00 +5°C° 0 mm 3 m/S 756 mmHg 73%
23:00 +5°C° 0 mm 3 m/S 755 mmHg 75%

Morgen, 20 Januar, Mittwoch

Zeit Temperatur Niederschläge Wind Luftdruck Luftfeuchtigkeit
00:00 +5°C° 0 mm 3 m/S 755 mmHg 76%
01:00 +5°C° 0 mm 3 m/S 754 mmHg 77%
02:00 +5°C° 0 mm 3 m/S 753 mmHg 77%
03:00 +5°C° 0 mm 4 m/S 752 mmHg 77%
04:00 +4°C° 0 mm 4 m/S 752 mmHg 75%
05:00 +4°C° 0 mm 3 m/S 752 mmHg 73%
06:00 +4°C° 0 mm 3 m/S 751 mmHg 71%
07:00 +4°C° 0 mm 4 m/S 751 mmHg 70%
08:00 +4°C° 0 mm 4 m/S 751 mmHg 69%
09:00 +5°C° 0 mm 4 m/S 751 mmHg 67%
10:00 +6°C° 0 mm 4 m/S 750 mmHg 65%
11:00 +8°C° 0 mm 5 m/S 750 mmHg 62%
12:00 +9°C° 0 mm 5 m/S 750 mmHg 60%
13:00 +9°C° 0.1 mm 5 m/S 749 mmHg 61%
14:00 +10°C° 0.1 mm 5 m/S 748 mmHg 62%
15:00 +10°C° 0.1 mm 6 m/S 748 mmHg 63%
16:00 +10°C° 0 mm 5 m/S 747 mmHg 64%
17:00 +9°C° 0 mm 5 m/S 747 mmHg 66%
18:00 +9°C° 0 mm 5 m/S 747 mmHg 68%
19:00 +9°C° 0.1 mm 5 m/S 747 mmHg 68%
20:00 +9°C° 0.1 mm 5 m/S 747 mmHg 69%
21:00 +10°C° 0.1 mm 6 m/S 747 mmHg 69%
22:00 +10°C° 0.2 mm 6 m/S 747 mmHg 70%
23:00 +10°C° 0.2 mm 6 m/S 747 mmHg 71%

übermorgen, 21 Januar, Donnerstag

Zeit Temperatur Niederschläge Wind Luftdruck Luftfeuchtigkeit
00:00 +10°C° 0.2 mm 6 m/S 747 mmHg 72%
01:00 +10°C° 0.5 mm 6 m/S 747 mmHg 75%
02:00 +10°C° 0.5 mm 6 m/S 748 mmHg 79%
03:00 +10°C° 0.5 mm 6 m/S 748 mmHg 83%
04:00 +10°C° 0.6 mm 5 m/S 748 mmHg 84%
05:00 +11°C° 0.6 mm 4 m/S 749 mmHg 86%
06:00 +11°C° 0.6 mm 4 m/S 749 mmHg 88%
07:00 +11°C° 0.2 mm 3 m/S 749 mmHg 89%
08:00 +11°C° 0.2 mm 3 m/S 749 mmHg 89%
09:00 +10°C° 0.2 mm 3 m/S 749 mmHg 90%
10:00 +11°C° 0 mm 4 m/S 749 mmHg 86%
11:00 +11°C° 0 mm 4 m/S 748 mmHg 82%
12:00 +12°C° 0 mm 5 m/S 747 mmHg 78%
13:00 +11°C° 0.6 mm 6 m/S 747 mmHg 77%
14:00 +11°C° 0.6 mm 7 m/S 746 mmHg 75%
15:00 +12°C° 0.6 mm 8 m/S 745 mmHg 74%
16:00 +11°C° 0.7 mm 7 m/S 746 mmHg 76%
17:00 +11°C° 0.7 mm 6 m/S 746 mmHg 78%
18:00 +10°C° 0.7 mm 5 m/S 746 mmHg 79%
19:00 +10°C° 0.5 mm 5 m/S 746 mmHg 80%
20:00 +10°C° 0.5 mm 5 m/S 745 mmHg 81%
21:00 +9°C° 0.5 mm 6 m/S 745 mmHg 83%
22:00 +9°C° 0.3 mm 6 m/S 745 mmHg 81%
23:00 +9°C° 0.3 mm 7 m/S 746 mmHg 80%

22 Januar, Freitag

Zeit Temperatur Niederschläge Wind Luftdruck Luftfeuchtigkeit
00:00 +9°C° 0.3 mm 7 m/S 746 mmHg 79%
01:00 +8°C° 0.3 mm 6 m/S 747 mmHg 79%
02:00 +8°C° 0.3 mm 5 m/S 748 mmHg 79%
03:00 +7°C° 0.3 mm 4 m/S 749 mmHg 79%
04:00 +7°C° 0 mm 3 m/S 750 mmHg 80%
05:00 +7°C° 0 mm 2 m/S 750 mmHg 82%
06:00 +7°C° 0 mm 2 m/S 750 mmHg 84%
07:00 +7°C° 0 mm 2 m/S 750 mmHg 84%
08:00 +7°C° 0 mm 2 m/S 750 mmHg 84%
09:00 +8°C° 0 mm 1 m/S 750 mmHg 84%
10:00 +9°C° 0.1 mm 1 m/S 750 mmHg 80%
11:00 +10°C° 0.1 mm 1 m/S 750 mmHg 75%
12:00 +11°C° 0.1 mm 1 m/S 750 mmHg 71%
13:00 +10°C° 0.3 mm 2 m/S 750 mmHg 71%
14:00 +10°C° 0.3 mm 3 m/S 750 mmHg 71%
15:00 +10°C° 0.3 mm 4 m/S 751 mmHg 71%
16:00 +9°C° 0.2 mm 3 m/S 751 mmHg 74%
17:00 +8°C° 0.2 mm 3 m/S 752 mmHg 77%
18:00 +7°C° 0.2 mm 3 m/S 752 mmHg 81%
19:00 +7°C° 0 mm 3 m/S 752 mmHg 82%
20:00 +7°C° 0 mm 3 m/S 752 mmHg 83%
21:00 +7°C° 0 mm 3 m/S 752 mmHg 84%
22:00 +6°C° 0.3 mm 4 m/S 751 mmHg 83%
23:00 +7°C° 0.3 mm 4 m/S 750 mmHg 83%

23 Januar, Samstag

Zeit Temperatur Niederschläge Wind Luftdruck Luftfeuchtigkeit
00:00 +7°C° 0.3 mm 5 m/S 750 mmHg 82%
01:00 +8°C° 1.6 mm 6 m/S 749 mmHg 81%
02:00 +8°C° 1.6 mm 7 m/S 749 mmHg 79%
03:00 +7°C° 1.6 mm 8 m/S 748 mmHg 77%
04:00 +8°C° 0.4 mm 7 m/S 749 mmHg 76%
05:00 +8°C° 0.4 mm 7 m/S 749 mmHg 74%
06:00 +8°C° 0.4 mm 6 m/S 750 mmHg 73%
07:00 +8°C° 0 mm 5 m/S 750 mmHg 74%
08:00 +8°C° 0 mm 5 m/S 750 mmHg 75%
09:00 +7°C° 0 mm 4 m/S 750 mmHg 76%
10:00 +8°C° 0.3 mm 4 m/S 750 mmHg 77%
11:00 +8°C° 0.3 mm 4 m/S 750 mmHg 79%
12:00 +8°C° 0.3 mm 4 m/S 750 mmHg 80%
13:00 +8°C° 1 mm 4 m/S 749 mmHg 83%
14:00 +8°C° 1 mm 3 m/S 749 mmHg 86%
15:00 +8°C° 1 mm 2 m/S 748 mmHg 89%
16:00 +8°C° 0.6 mm 2 m/S 749 mmHg 89%
17:00 +8°C° 0.6 mm 2 m/S 749 mmHg 90%
18:00 +9°C° 0.6 mm 1 m/S 749 mmHg 90%
19:00 +7°C° 0.1 mm 2 m/S 749 mmHg 89%
20:00 +7°C° 0.1 mm 2 m/S 749 mmHg 89%
21:00 +7°C° 0.1 mm 2 m/S 750 mmHg 88%
22:00 +7°C° 0.2 mm 2 m/S 749 mmHg 90%
23:00 +7°C° 0.2 mm 2 m/S 749 mmHg 92%

24 Januar, Sonntag

Zeit Temperatur Niederschläge Wind Luftdruck Luftfeuchtigkeit
00:00 +7°C° 0.2 mm 2 m/S 749 mmHg 94%
01:00 +8°C° 1.1 mm 3 m/S 749 mmHg 91%
02:00 +7°C° 1.1 mm 4 m/S 749 mmHg 88%
03:00 +8°C° 1.1 mm 5 m/S 749 mmHg 86%
04:00 +7°C° 0.1 mm 5 m/S 750 mmHg 84%
05:00 +7°C° 0.1 mm 4 m/S 750 mmHg 83%
06:00 +7°C° 0.1 mm 4 m/S 751 mmHg 81%
07:00 +7°C° 0.1 mm 4 m/S 751 mmHg 81%
08:00 +8°C° 0.1 mm 3 m/S 752 mmHg 82%
09:00 +8°C° 0.1 mm 3 m/S 752 mmHg 82%
10:00 +8°C° 0.3 mm 4 m/S 753 mmHg 77%
11:00 +9°C° 0.3 mm 5 m/S 753 mmHg 73%
12:00 +10°C° 0.3 mm 6 m/S 754 mmHg 68%
13:00 +10°C° 0.2 mm 6 m/S 754 mmHg 68%
14:00 +9°C° 0.2 mm 6 m/S 754 mmHg 68%
15:00 +9°C° 0.2 mm 6 m/S 754 mmHg 68%
16:00 +8°C° 0.1 mm 5 m/S 755 mmHg 72%
17:00 +7°C° 0.1 mm 4 m/S 756 mmHg 76%
18:00 +7°C° 0.1 mm 3 m/S 756 mmHg 80%
19:00 +7°C° 0.1 mm 2 m/S 757 mmHg 81%
20:00 +7°C° 0.1 mm 2 m/S 757 mmHg 82%
21:00 +6°C° 0.1 mm 2 m/S 758 mmHg 84%
22:00 +6°C° 0 mm 2 m/S 758 mmHg 85%
23:00 +6°C° 0 mm 2 m/S 759 mmHg 85%
Mehr zeigen

Wir brauchen deine Erlaubnis

Meteoprog und unser Service Anbieter werden persönliche Daten aufbewahren, so wie Cookies, Geräte Bezeichnung oder ähnliche Technologien von deinem Gerät und Prozess, so wie Persönliche Daten Inhalte und Werbungen, genauso wie social Media und den Verkehr zu analysieren.

  • Aufbewahrung und/oder Zugang zu deiner Geräte Informationen.

    Cookies, Geräte Bezeichnung oder andere Informationen, können aufbewahrt oder Zugang zu deinem Gerät erhalten, für den Grund, der oben angegeben wird.

  • Personalisierte Werbung und Inhalte, Messungen, Einblick in das Publikum und Produkt Entwicklung.

    Werbungen und Inhalte können personalisiert werden, basierend auf ein Profil. Mehr Daten können besser personalisierte Werbungen und Inhalte hinzufügen. Werbung und Inhalte können gezeigt und gemessen werden. Einblicke über das Publikum, welche die Werbung gesehen haben und den Inhalt, können abgeleitet werden. So wie Daten können genutzt werden, um es zu verbessern oder die Benutzer Erfahrung zu verbessern das System und die Software.

Wenn du “Ich stimme zu” klickst, erlaubst du uns, die Cookies zu benutzen die Geräte Bezeichnung, den Web oder ähnliche Technologien zu benutzen. Deine Settings, können in deinem Gerät bei deinem Browser geändert werden.

Für den bestimmten Zweck, berechtigten Interessen beruhen darauf, mehr als auf den Inhalt. Du kannst mehr darüber in unseren Privaten und Cookie Politik lesen.